QPF
0.00 0.00 0.00 0.00 0.11 0.03 0.01 0.00 0.01 0.01 0.00 0.00 0.00 0.00 0.00 0.01 0.01 0.05 0.01 0.00 0.00 0.00 0.00 0.00 0.00 0.00 0.00 0.00 0.00 0.00 0.01 0.01 0.00 0.00 0.00 0.00 0.01 0.01 0.02 0.01 0.01 0.02 0.00 0.00 0.00 0.00 0.00 0.00 0.00
0.00 0.00 0.00 0.00 0.08 0.07 0.11 0.00 0.01 0.00 0.00 0.00 0.00 0.00 0.00 0.00 0.00 0.00 0.01 0.00 0.00 0.00 0.00 0.00 0.00 0.00 0.00 0.00 0.02 0.02 0.04 0.07 0.01 0.00 0.00 0.00 0.03 0.04 0.01 0.03 0.02 0.03 0.02 0.01 0.00 0.00 0.00 0.00 0.00
0.00 0.00 0.00 0.01 0.02 0.03 0.03 0.01 0.00 0.00 0.00 0.00 0.00 0.00 0.00 0.00 0.00 0.00 0.00 0.00 0.00 0.00 0.00 0.00 0.00 0.00 0.00 0.00 0.01 0.04 0.04 0.03 0.02 0.00 0.00 0.03 0.07 0.07 0.06 0.06 0.04 0.01 0.01 0.01 0.01 0.00 0.00 0.00 0.00
0.00 0.00 0.00 0.00 0.00 0.00 0.00 0.00 0.00 0.00 0.00 0.00 0.00 0.02 0.00 0.00 0.00 0.01 0.00 0.00 0.00 0.00 0.00 0.00 0.00 0.00 0.00 0.00 0.01 0.03 0.06 0.03 0.00 0.00 0.00 0.00 0.02 0.06 0.09 0.09 0.03 0.00 0.00 0.00 0.03 0.03 0.00 0.00 0.00
0.00 0.00 0.00 0.00 0.00 0.00 0.00 0.00 0.00 0.00 0.01 0.00 0.00 0.02 0.00 0.00 0.00 0.00 0.00 0.00 0.00 0.00 0.00 0.00 0.00 0.00 0.00 0.00 0.00 0.00 0.00 0.01 0.00 0.02 0.04 0.03 0.00 0.00 0.04 0.02 0.04 0.02 0.00 0.00 0.01 0.01 0.00 0.00 0.00
0.00 0.00 0.00 0.00 0.00 0.00 0.00 0.00 0.00 0.00 0.01 0.01 0.00 0.00 0.00 0.00 0.00 0.00 0.00 0.00 0.00 0.00 0.00 0.00 0.00 0.00 0.00 0.00 0.00 0.00 0.01 0.01 0.06 0.13 0.08 0.07 0.00 0.00 0.00 0.00 0.00 0.00 0.00 0.00 0.00 0.00 0.00 0.00 0.00
0.00 0.00 0.00 0.00 0.00 0.00 0.00 0.00 0.00 0.00 0.03 0.01 0.01 0.02 0.01 0.00 0.00 0.00 0.01 0.01 0.00 0.01 0.00 0.00 0.00 0.00 0.01 0.01 0.01 0.01 0.03 0.03 0.11 0.21 0.18 0.16 0.05 0.02 0.00 0.00 0.00 0.00 0.00 0.00 0.00 0.00 0.00 0.00 0.00
0.00 0.00 0.00 0.00 0.00 0.00 0.00 0.00 0.00 0.00 0.01 0.01 0.01 0.01 0.05 0.00 0.00 0.00 0.01 0.00 0.00 0.00 0.00 0.00 0.00 0.00 0.00 0.01 0.02 0.06 0.03 0.01 0.03 0.08 0.08 0.01 0.01 0.00 0.02 0.00 0.00 0.00 0.00 0.00 0.00 0.00 0.00 0.00 0.00
0.00 0.00 0.00 0.00 0.00 0.00 0.00 0.00 0.00 0.00 0.01 0.00 0.00 0.00 0.00 0.00 0.00 0.00 0.00 0.00 0.00 0.00 0.00 0.00 0.00 0.00 0.04 0.00 0.01 0.05 0.06 0.00 0.00 0.01 0.00 0.00 0.00 0.00 0.03 0.01 0.02 0.00 0.00 0.00 0.00 0.00 0.00 0.00 0.00
0.00 0.00 0.00 0.00 0.00 0.00 0.00 0.00 0.00 0.00 0.02 0.03 0.01 0.05 0.05 0.00 0.00 0.00 0.00 0.00 0.00 0.00 0.00 0.00 0.00 0.00 0.06 0.08 0.07 0.04 0.08 0.01 0.03 0.06 0.02 0.00 0.01 0.04 0.04 0.01 0.00 0.00 0.00 0.00 0.00 0.00 0.00 0.00 0.00
0.00 0.00 0.00 0.00 0.00 0.00 0.00 0.00 0.00 0.00 0.01 0.01 0.02 0.03 0.05 0.00 0.00 0.00 0.00 0.00 0.00 0.00 0.00 0.00 0.01 0.02 0.01 0.07 0.13 0.03 0.09 0.06 0.10 0.10 0.04 0.02 0.01 0.04 0.03 0.02 0.00 0.00 0.00 0.00 0.00 0.00 0.00 0.00 0.00
0.00 0.00 0.00 0.00 0.00 0.00 0.00 0.00 0.00 0.00 0.00 0.00 0.01 0.01 0.02 0.00 0.00 0.00 0.01 0.00 0.00 0.00 0.00 0.01 0.01 0.05 0.07 0.01 0.01 0.00 0.00 0.02 0.05 0.03 0.02 0.05 0.01 0.02 0.05 0.04 0.01 0.02 0.02 0.01 0.00 0.00 0.01 0.03 0.01
0.00 0.00 0.00 0.00 0.00 0.00 0.00 0.00 0.00 0.00 0.00 0.00 0.00 0.00 0.00 0.00 0.00 0.00 0.00 0.00 0.00 0.00 0.00 0.00 0.00 0.02 0.01 0.03 0.01 0.01 0.00 0.02 0.04 0.07 0.01 0.06 0.00 0.00 0.03 0.04 0.09 0.11 0.07 0.06 0.02 0.00 0.02 0.02 0.01
0.00 0.00 0.00 0.00 0.00 0.00 0.00 0.00 0.00 0.00 0.00 0.00 0.00 0.00 0.00 0.00 0.00 0.00 0.00 0.00 0.00 0.00 0.00 0.00 0.00 0.00 0.01 0.03 0.06 0.07 0.00 0.00 0.00 0.02 0.00 0.01 0.01 0.01 0.02 0.03 0.05 0.09 0.10 0.05 0.04 0.03 0.01 0.00 0.00
0.00 0.00 0.00 0.00 0.00 0.00 0.00 0.00 0.03 0.00 0.00 0.00 0.00 0.00 0.00 0.00 0.00 0.00 0.00 0.00 0.00 0.00 0.00 0.00 0.00 0.00 0.00 0.03 0.09 0.11 0.05 0.00 0.00 0.00 0.02 0.00 0.01 0.01 0.05 0.11 0.04 0.06 0.06 0.05 0.05 0.07 0.06 0.02 0.02
0.00 0.00 0.00 0.00 0.00 0.00 0.00 0.00 0.01 0.00 0.00 0.00 0.00 0.00 0.00 0.00 0.00 0.00 0.00 0.00 0.00 0.00 0.00 0.00 0.00 0.00 0.04 0.04 0.03 0.01 0.03 0.02 0.01 0.00 0.02 0.00 0.00 0.00 0.04 0.08 0.07 0.00 0.02 0.10 0.18 0.07 0.07 0.02 0.01
0.00 0.00 0.00 0.00 0.00 0.00 0.00 0.00 0.00 0.00 0.00 0.00 0.00 0.00 0.00 0.00 0.00 0.00 0.00 0.00 0.00 0.00 0.00 0.00 0.00 0.00 0.06 0.16 0.03 0.00 0.02 0.04 0.04 0.02 0.04 0.09 0.00 0.00 0.02 0.07 0.07 0.02 0.08 0.14 0.07 0.05 0.02 0.00 0.00
0.00 0.00 0.00 0.00 0.00 0.00 0.00 0.00 0.00 0.00 0.00 0.00 0.00 0.00 0.00 0.00 0.00 0.00 0.00 0.00 0.00 0.00 0.00 0.00 0.00 0.00 0.01 0.11 0.02 0.00 0.00 0.04 0.07 0.09 0.07 0.22 0.02 0.00 0.00 0.04 0.07 0.04 0.09 0.11 0.07 0.02 0.00 0.00 0.00
0.00 0.00 0.00 0.00 0.00 0.00 0.00 0.00 0.00 0.00 0.00 0.00 0.00 0.00 0.00 0.00 0.00 0.00 0.00 0.00 0.00 0.00 0.00 0.00 0.00 0.04 0.02 0.04 0.06 0.03 0.01 0.00 0.00 0.01 0.10 0.26 0.11 0.05 0.00 0.03 0.03 0.08 0.16 0.09 0.08 0.01 0.02 0.01 0.00
0.00 0.00 0.00 0.00 0.00 0.00 0.00 0.00 0.00 0.00 0.00 0.00 0.00 0.00 0.00 0.00 0.00 0.00 0.00 0.00 0.00 0.00 0.00 0.00 0.00 0.01 0.01 0.01 0.01 0.02 0.04 0.02 0.00 0.02 0.03 0.21 0.24 0.07 0.07 0.04 0.01 0.03 0.07 0.10 0.13 0.06 0.06 0.04 0.06
0.00 0.00 0.00 0.00 0.00 0.00 0.00 0.00 0.00 0.00 0.00 0.00 0.00 0.00 0.00 0.00 0.00 0.00 0.00 0.00 0.00 0.00 0.00 0.00 0.00 0.00 0.00 0.00 0.03 0.07 0.13 0.08 0.02 0.02 0.04 0.17 0.19 0.04 0.09 0.10 0.08 0.02 0.06 0.06 0.04 0.11 0.15 0.12 0.18
0.00 0.00 0.00 0.00 0.00 0.00 0.00 0.00 0.00 0.00 0.00 0.00 0.00 0.00 0.00 0.00 0.00 0.00 0.00 0.00 0.00 0.00 0.00 0.00 0.00 0.02 0.01 0.01 0.08 0.11 0.14 0.03 0.02 0.03 0.06 0.14 0.13 0.05 0.06 0.04 0.01 0.04 0.16 0.10 0.03 0.09 0.11 0.16 0.11
0.00 0.00 0.00 0.00 0.00 0.00 0.00 0.00 0.00 0.00 0.00 0.00 0.00 0.00 0.00 0.00 0.00 0.00 0.00 0.00 0.00 0.00 0.00 0.00 0.00 0.01 0.04 0.03 0.10 0.13 0.20 0.20 0.11 0.10 0.06 0.15 0.12 0.05 0.03 0.02 0.00 0.03 0.09 0.14 0.05 0.08 0.12 0.05 0.02
0.00 0.00 0.00 0.00 0.00 0.00 0.00 0.00 0.00 0.00 0.00 0.00 0.00 0.00 0.00 0.00 0.00 0.00 0.00 0.00 0.00 0.00 0.00 0.00 0.00 0.00 0.00 0.00 0.03 0.05 0.09 0.21 0.22 0.15 0.13 0.18 0.12 0.03 0.04 0.00 0.00 0.01 0.02 0.14 0.11 0.09 0.05 0.03 0.02
0.00 0.00 0.00 0.00 0.00 0.00 0.00 0.00 0.00 0.00 0.00 0.00 0.00 0.00 0.00 0.00 0.00 0.00 0.00 0.00 0.00 0.00 0.00 0.00 0.00 0.01 0.00 0.00 0.01 0.00 0.05 0.36 0.16 0.10 0.14 0.13 0.06 0.00 0.00 0.00 0.00 0.00 0.01 0.09 0.05 0.06 0.04 0.07 0.04
0.00 0.00 0.00 0.00 0.00 0.00 0.00 0.00 0.00 0.00 0.00 0.00 0.00 0.00 0.00 0.00 0.00 0.00 0.00 0.00 0.00 0.00 0.00 0.00 0.00 0.00 0.00 0.00 0.00 0.00 0.03 0.14 0.16 0.10 0.08 0.04 0.00 0.00 0.00 0.00 0.00 0.00 0.01 0.07 0.02 0.05 0.09 0.16 0.10
0.00 0.00 0.00 0.00 0.00 0.00 0.00 0.00 0.00 0.00 0.00 0.00 0.00 0.00 0.00 0.00 0.00 0.00 0.00 0.00 0.00 0.00 0.00 0.00 0.00 0.00 0.00 0.00 0.00 0.00 0.01 0.04 0.17 0.26 0.08 0.02 0.00 0.00 0.03 0.05 0.01 0.00 0.02 0.03 0.01 0.02 0.10 0.11 0.05
0.00 0.00 0.00 0.00 0.00 0.00 0.00 0.00 0.00 0.00 0.00 0.00 0.00 0.00 0.00 0.00 0.00 0.00 0.00 0.00 0.00 0.00 0.00 0.00 0.00 0.00 0.00 0.00 0.00 0.00 0.00 0.01 0.07 0.14 0.04 0.02 0.03 0.01 0.12 0.10 0.03 0.03 0.01 0.00 0.01 0.02 0.06 0.03 0.00
0.00 0.00 0.00 0.00 0.00 0.00 0.00 0.00 0.00 0.00 0.00 0.00 0.00 0.00 0.00 0.00 0.00 0.00 0.00 0.00 0.00 0.00 0.00 0.00 0.00 0.00 0.00 0.00 0.00 0.00 0.00 0.00 0.00 0.01 0.03 0.07 0.06 0.05 0.15 0.16 0.09 0.07 0.05 0.04 0.04 0.05 0.08 0.07 0.03
0.00 0.00 0.00 0.00 0.00 0.00 0.00 0.00 0.00 0.00 0.00 0.00 0.00 0.00 0.00 0.00 0.00 0.00 0.00 0.00 0.00 0.00 0.00 0.00 0.00 0.00 0.00 0.00 0.00 0.00 0.00 0.00 0.00 0.02 0.00 0.03 0.03 0.07 0.10 0.13 0.10 0.09 0.08 0.07 0.06 0.03 0.02 0.06 0.03
MSLP
1004.86 1003.84 1003.57 1002.65 1003.11 1004.10 1003.45 1002.34 1001.76 1001.68 1001.22 1001.25 1001.88 1002.72 1003.68 1004.31 1005.40 1007.14 1008.34 1008.70 1009.80 1010.96 1012.01 1012.80 1013.35 1013.77 1014.09 1014.35 1014.64 1015.01 1015.24 1015.43 1015.55 1015.74 1016.22 1016.69 1016.88 1017.05 1017.16 1017.30 1017.48 1017.67 1017.73 1017.81 1017.91 1018.09 1018.21 1018.24 1018.29
1004.15 1002.39 1002.57 1002.24 1004.53 1004.45 1003.15 1002.51 1001.84 1001.21 1001.21 1001.67 1001.98 1003.02 1004.10 1004.32 1005.19 1006.55 1007.87 1008.47 1009.63 1010.64 1011.81 1012.58 1013.31 1013.76 1014.15 1014.48 1014.76 1015.02 1015.26 1015.50 1015.82 1016.01 1016.32 1016.60 1016.93 1017.16 1017.39 1017.52 1017.67 1017.82 1017.85 1017.92 1018.09 1018.16 1018.28 1018.30 1018.37
1004.18 1002.49 1002.51 1003.90 1004.18 1003.54 1003.04 1002.46 1001.81 1001.57 1001.34 1001.46 1002.08 1002.53 1003.97 1004.60 1005.54 1006.73 1007.27 1008.33 1009.44 1010.65 1011.33 1012.69 1013.22 1013.75 1014.09 1014.40 1014.72 1015.15 1015.38 1015.66 1016.00 1016.29 1016.51 1016.85 1017.08 1017.36 1017.58 1017.69 1017.86 1017.94 1017.99 1018.09 1018.26 1018.23 1018.31 1018.26 1018.34
1002.40 1002.17 1002.03 1003.36 1002.88 1002.79 1002.48 1002.29 1002.12 1001.95 1002.14 1002.14 1003.00 1003.92 1004.41 1004.25 1005.14 1006.18 1007.09 1008.42 1009.42 1010.33 1011.56 1012.91 1013.30 1013.73 1014.16 1014.49 1014.80 1015.12 1015.48 1015.85 1016.24 1016.36 1016.70 1016.97 1017.33 1017.68 1017.84 1017.87 1017.93 1018.01 1018.08 1018.15 1018.25 1018.22 1018.29 1018.26 1018.30
1001.65 1001.46 1002.96 1002.90 1002.49 1002.39 1002.27 1002.26 1002.37 1002.47 1003.16 1003.07 1003.88 1004.50 1004.95 1004.71 1005.62 1006.10 1007.12 1008.33 1009.21 1010.19 1011.90 1012.92 1013.45 1013.78 1014.17 1014.59 1014.90 1015.26 1015.61 1015.96 1016.42 1016.68 1016.76 1017.05 1017.46 1017.78 1017.95 1017.99 1017.93 1018.01 1018.01 1018.06 1018.11 1018.18 1018.34 1018.32 1018.35
1000.90 1001.39 1003.32 1003.72 1002.45 1002.27 1001.98 1002.09 1002.40 1002.80 1003.58 1003.44 1003.74 1004.56 1005.67 1005.69 1006.20 1006.41 1007.37 1008.17 1009.17 1010.31 1011.73 1012.78 1013.57 1013.89 1014.26 1014.65 1015.03 1015.33 1015.62 1015.96 1016.34 1016.68 1016.82 1017.16 1017.49 1017.82 1017.75 1017.94 1017.88 1017.81 1017.93 1017.96 1018.05 1018.21 1018.34 1018.37 1018.40
1000.63 1001.34 1002.42 1002.70 1003.07 1003.28 1002.22 1001.95 1002.49 1003.02 1003.61 1003.60 1004.51 1005.59 1006.25 1006.07 1006.28 1006.84 1007.83 1008.74 1009.38 1010.16 1011.28 1012.49 1013.31 1013.83 1014.26 1014.64 1015.00 1015.27 1015.65 1015.94 1016.38 1016.68 1016.96 1017.24 1017.54 1017.62 1017.68 1017.77 1017.84 1017.75 1017.79 1017.90 1018.05 1018.24 1018.39 1018.39 1018.37
1001.69 1003.30 1003.32 1002.60 1002.67 1002.58 1002.36 1002.10 1002.48 1002.73 1003.44 1003.65 1004.43 1005.90 1007.16 1005.67 1006.27 1006.90 1008.16 1008.40 1009.44 1010.04 1011.34 1012.03 1013.00 1013.58 1014.10 1014.62 1014.94 1015.31 1015.64 1015.90 1016.33 1016.71 1017.01 1017.22 1017.31 1017.44 1017.55 1017.62 1017.75 1017.70 1017.68 1017.82 1018.04 1018.24 1018.39 1018.39 1018.43
1002.07 1004.10 1002.68 1002.25 1002.08 1002.17 1002.15 1002.37 1002.35 1002.77 1003.24 1002.98 1003.97 1005.41 1005.50 1005.59 1005.97 1007.14 1008.51 1009.13 1009.70 1010.27 1011.23 1011.61 1012.77 1013.28 1013.65 1014.22 1014.80 1015.35 1015.64 1015.87 1016.16 1016.52 1016.83 1016.99 1017.09 1016.97 1016.99 1017.20 1017.32 1017.48 1017.58 1017.69 1017.91 1018.12 1018.40 1018.52 1018.61
1001.54 1002.74 1002.03 1002.07 1001.85 1001.99 1001.91 1002.15 1002.40 1002.50 1003.22 1004.94 1004.98 1006.68 1006.03 1006.27 1005.78 1006.98 1008.04 1009.41 1010.21 1010.76 1011.18 1011.60 1012.17 1012.80 1013.34 1013.67 1014.47 1015.01 1015.33 1015.61 1015.92 1016.24 1016.56 1016.64 1016.45 1016.46 1016.69 1016.63 1016.96 1017.18 1017.43 1017.61 1017.70 1017.97 1018.31 1018.24 1017.91
1001.04 1001.44 1001.56 1001.81 1002.24 1002.09 1001.96 1001.61 1001.55 1002.28 1003.17 1003.74 1005.03 1005.81 1006.96 1006.38 1005.73 1006.62 1007.44 1008.40 1009.26 1010.08 1010.88 1011.16 1011.87 1012.28 1012.96 1013.65 1014.40 1014.71 1015.21 1015.24 1015.58 1016.03 1016.22 1016.30 1016.28 1016.69 1016.65 1016.60 1016.78 1017.13 1017.45 1017.66 1017.71 1017.88 1017.73 1017.49 1017.66
1000.57 1001.24 1001.23 1001.73 1001.83 1001.78 1001.75 1001.88 1001.67 1001.99 1002.49 1002.66 1004.31 1005.30 1005.69 1005.68 1005.58 1006.36 1007.69 1007.99 1008.96 1010.11 1010.28 1011.24 1011.95 1013.06 1013.25 1013.33 1013.69 1013.90 1014.65 1014.69 1015.20 1015.59 1015.91 1016.17 1016.24 1016.17 1016.45 1016.62 1016.69 1016.87 1017.15 1017.31 1017.32 1017.30 1017.21 1017.14 1017.09
1000.36 1000.91 1000.60 1001.15 1001.19 1001.44 1001.72 1002.02 1002.08 1002.05 1002.32 1002.71 1003.54 1004.18 1004.64 1005.07 1005.34 1005.54 1006.41 1007.89 1008.47 1009.62 1010.41 1011.47 1011.98 1012.46 1012.69 1013.22 1012.99 1013.23 1013.63 1014.15 1014.74 1015.31 1015.58 1016.01 1015.80 1015.78 1016.20 1016.58 1016.43 1016.90 1017.43 1017.25 1017.23 1016.73 1017.21 1017.03 1016.89
1000.71 1000.57 1000.23 1000.49 1000.85 1001.01 1001.71 1002.06 1002.42 1002.02 1002.00 1002.32 1002.89 1003.45 1003.96 1004.37 1004.78 1005.46 1005.59 1006.93 1007.73 1008.96 1009.94 1010.78 1011.61 1012.08 1011.95 1012.87 1013.30 1013.77 1014.06 1014.03 1014.55 1014.79 1015.02 1015.55 1015.54 1015.50 1015.95 1016.30 1016.20 1016.55 1016.99 1017.09 1016.89 1016.41 1016.18 1016.29 1016.40
1000.69 1000.05 999.67 1000.15 1000.51 1000.71 1001.49 1002.62 1004.16 1002.08 1001.67 1001.83 1002.41 1002.99 1003.24 1003.88 1004.35 1004.71 1005.25 1006.29 1007.47 1008.75 1009.59 1010.56 1011.20 1011.72 1012.08 1012.71 1013.32 1013.62 1013.90 1013.89 1014.28 1014.41 1014.77 1015.07 1015.40 1015.70 1016.01 1016.19 1016.20 1015.83 1016.28 1016.34 1016.63 1016.62 1016.67 1016.39 1016.47
1000.14 999.90 999.28 999.62 1000.06 1000.34 1000.76 1002.35 1002.30 1001.76 1001.24 1001.12 1001.55 1002.04 1002.65 1003.35 1003.85 1004.45 1005.13 1005.86 1007.08 1008.04 1009.06 1010.03 1010.58 1011.62 1012.16 1012.40 1013.10 1013.51 1013.50 1013.60 1013.86 1014.12 1014.43 1014.74 1015.20 1015.57 1015.71 1016.12 1016.11 1015.49 1016.10 1016.22 1016.69 1016.54 1016.90 1016.50 1016.66
999.48 999.01 999.24 999.12 999.34 999.82 1000.05 1000.18 999.97 999.83 1000.19 1000.45 1000.62 1001.08 1001.84 1002.64 1003.46 1004.09 1004.76 1005.47 1006.67 1007.60 1008.70 1009.87 1010.41 1011.37 1011.98 1012.46 1012.93 1013.00 1013.44 1013.65 1013.47 1013.53 1013.93 1014.55 1014.89 1015.33 1015.56 1015.60 1015.73 1015.43 1015.74 1016.19 1016.75 1016.53 1016.50 1016.25 1016.38
999.17 999.51 998.87 999.11 999.23 999.60 999.76 999.38 999.11 998.67 998.96 999.43 999.87 1000.15 1000.93 1001.59 1002.35 1003.39 1004.30 1005.17 1006.12 1007.16 1008.13 1009.51 1009.86 1010.83 1011.41 1012.27 1013.02 1013.22 1013.51 1013.59 1013.28 1013.13 1013.90 1014.44 1014.95 1014.93 1015.07 1015.23 1015.62 1015.51 1015.75 1016.21 1016.44 1016.22 1015.93 1015.83 1015.98
999.81 999.92 999.47 999.23 999.08 999.40 999.20 998.73 997.99 997.84 997.94 998.24 998.88 999.48 999.69 1000.51 1001.37 1002.34 1003.61 1004.74 1005.61 1006.79 1008.00 1008.54 1010.02 1011.08 1011.39 1012.23 1012.88 1013.17 1013.42 1013.57 1013.54 1013.92 1014.63 1015.00 1015.21 1015.13 1014.97 1014.95 1015.24 1015.39 1015.74 1015.81 1015.62 1015.52 1015.78 1016.31 1016.11
1000.08 999.94 999.62 999.20 998.80 999.13 998.76 997.87 997.13 996.77 997.03 997.50 997.70 998.36 998.91 999.66 1000.62 1002.12 1003.19 1004.25 1005.29 1006.39 1007.18 1008.23 1009.17 1010.63 1011.14 1011.69 1012.23 1012.56 1012.91 1013.30 1013.46 1014.22 1015.03 1013.95 1015.31 1015.25 1014.73 1015.15 1015.35 1015.41 1015.57 1015.57 1015.60 1015.48 1015.95 1016.70 1016.45
999.68 999.54 999.39 999.17 998.99 999.08 998.06 997.20 996.34 996.01 996.89 997.19 997.24 997.33 997.74 998.45 999.82 1001.16 1002.58 1003.61 1004.69 1006.03 1007.22 1008.05 1008.78 1009.65 1010.24 1010.73 1011.48 1012.15 1012.88 1013.35 1013.86 1014.02 1014.50 1015.30 1015.35 1014.51 1014.50 1014.83 1015.21 1015.45 1015.77 1015.86 1015.96 1015.65 1015.94 1016.85 1016.95
999.44 999.12 998.95 999.27 999.30 998.78 998.28 997.11 996.03 996.34 996.48 996.52 996.47 996.52 996.73 997.59 998.76 1000.34 1001.58 1003.21 1004.37 1005.42 1006.60 1007.53 1008.42 1009.40 1010.06 1010.67 1011.85 1012.05 1012.38 1013.09 1013.49 1013.80 1014.21 1014.57 1014.99 1014.27 1014.20 1014.41 1014.71 1015.44 1015.64 1015.89 1016.08 1016.11 1015.83 1016.17 1017.00
999.51 999.28 999.26 999.53 999.38 998.94 997.72 996.62 995.89 996.03 996.09 996.36 996.30 996.73 996.78 996.93 997.87 999.40 1000.84 1002.30 1003.59 1004.81 1005.63 1006.98 1007.96 1008.89 1009.54 1010.26 1011.06 1011.70 1012.13 1012.60 1012.78 1013.57 1014.30 1014.59 1014.62 1013.77 1013.73 1013.96 1014.56 1015.32 1015.51 1015.88 1016.13 1016.07 1016.10 1015.86 1015.97
999.63 999.72 999.53 999.26 999.11 998.56 997.36 996.57 995.40 995.78 995.83 996.15 996.17 996.74 996.96 997.00 997.60 998.81 1000.02 1001.73 1003.05 1004.15 1005.29 1006.26 1007.58 1008.54 1009.46 1010.06 1010.59 1011.23 1011.85 1012.35 1012.77 1013.36 1014.02 1014.35 1013.99 1013.73 1013.50 1013.47 1014.26 1014.65 1015.23 1015.66 1015.58 1015.74 1015.69 1015.57 1015.67
999.43 999.38 998.94 998.18 998.03 998.30 998.64 996.93 995.81 995.52 995.69 996.01 996.16 996.27 996.84 997.24 997.75 998.71 999.62 1001.11 1002.20 1003.45 1004.68 1005.93 1007.24 1008.30 1009.14 1009.73 1010.38 1010.71 1011.13 1011.94 1012.70 1013.24 1013.61 1013.79 1013.56 1013.00 1013.22 1013.36 1013.85 1014.36 1014.54 1014.86 1015.30 1015.35 1015.56 1015.49 1015.71
998.57 998.47 998.19 997.75 997.44 997.17 997.02 996.34 995.68 995.67 995.82 996.28 996.17 996.37 996.99 997.40 997.74 998.64 999.53 1000.50 1001.69 1002.93 1003.96 1005.24 1006.68 1007.70 1008.63 1009.31 1009.89 1010.28 1010.94 1011.91 1012.43 1013.27 1013.37 1013.01 1012.61 1012.73 1013.16 1013.52 1013.81 1014.04 1014.11 1014.39 1014.65 1015.10 1015.29 1015.62 1015.99
998.62 998.17 997.85 997.67 997.50 997.13 996.57 996.45 997.16 996.98 996.65 996.74 996.72 996.96 997.24 997.44 997.71 998.62 999.52 1000.34 1001.49 1002.53 1003.66 1004.78 1006.28 1007.23 1008.12 1008.89 1009.50 1010.02 1010.65 1011.59 1012.27 1012.97 1012.93 1012.54 1012.25 1012.49 1013.19 1013.64 1013.92 1014.00 1014.20 1014.33 1014.54 1014.90 1015.28 1015.03 1015.33
998.84 998.65 998.15 997.67 997.73 997.52 996.93 997.44 998.69 998.47 998.02 997.67 997.88 998.39 998.28 998.04 998.03 998.38 999.16 1000.04 1001.01 1002.14 1003.51 1004.64 1005.90 1006.86 1007.74 1008.28 1009.03 1009.66 1010.31 1011.05 1011.70 1012.16 1012.56 1012.29 1012.13 1012.50 1012.99 1013.58 1013.80 1014.18 1014.00 1014.16 1014.49 1014.60 1015.05 1015.00 1014.94
997.83 998.19 998.44 998.38 998.40 997.92 997.49 997.59 997.69 998.45 998.44 998.50 998.83 999.68 999.65 999.28 998.81 998.62 999.05 999.96 1000.94 1001.97 1003.17 1004.32 1005.57 1006.52 1007.41 1007.85 1008.38 1009.06 1009.76 1010.38 1010.94 1011.27 1011.70 1011.90 1012.22 1012.56 1013.02 1013.62 1013.68 1013.91 1014.13 1014.22 1014.47 1014.33 1014.43 1014.51 1014.55
998.19 997.91 998.11 998.24 998.70 998.40 998.57 998.42 998.25 999.10 999.96 999.52 1000.18 1000.73 1001.03 1000.78 1000.09 999.33 999.03 999.73 1000.83 1001.96 1002.98 1003.96 1004.96 1005.92 1006.95 1007.55 1008.06 1008.66 1009.15 1009.77 1010.27 1010.96 1011.44 1011.96 1011.93 1012.47 1013.12 1014.25 1013.76 1013.76 1013.84 1014.21 1014.22 1014.01 1013.83 1014.34 1014.27
Thickness
5865 5874 5876 5868 5797 5812 5809 5823 5842 5825 5833 5856 5852 5836 5825 5825 5802 5771 5817 5820 5811 5800 5790 5783 5779 5775 5772 5770 5768 5766 5764 5761 5760 5759 5756 5753 5751 5749 5748 5746 5743 5743 5742 5742 5741 5740 5738 5737 5736
5872 5884 5874 5857 5788 5779 5801 5832 5826 5842 5853 5857 5851 5835 5820 5813 5831 5822 5815 5823 5813 5804 5793 5786 5780 5775 5772 5770 5768 5766 5764 5761 5759 5758 5755 5752 5749 5747 5746 5745 5743 5742 5742 5742 5740 5739 5737 5737 5736
5871 5884 5848 5805 5792 5791 5797 5829 5838 5849 5860 5855 5843 5849 5828 5817 5829 5822 5832 5825 5815 5804 5798 5787 5782 5777 5773 5770 5769 5766 5763 5761 5758 5756 5753 5751 5748 5745 5744 5743 5742 5741 5741 5740 5738 5738 5737 5737 5736
5875 5869 5860 5795 5811 5826 5828 5836 5844 5843 5847 5855 5841 5818 5835 5849 5837 5835 5836 5826 5815 5807 5797 5787 5782 5778 5774 5771 5769 5767 5763 5760 5756 5755 5752 5749 5746 5743 5742 5742 5742 5741 5740 5740 5739 5737 5737 5737 5737
5879 5863 5807 5807 5824 5836 5844 5847 5847 5835 5830 5836 5833 5815 5816 5841 5845 5841 5834 5826 5814 5809 5794 5786 5782 5779 5776 5773 5770 5767 5763 5760 5756 5753 5751 5747 5745 5744 5741 5741 5742 5741 5741 5741 5740 5738 5737 5737 5737
5852 5851 5798 5772 5822 5837 5846 5852 5845 5837 5832 5834 5831 5819 5812 5837 5831 5835 5830 5827 5817 5807 5794 5786 5781 5778 5776 5773 5770 5766 5763 5760 5757 5753 5751 5748 5745 5742 5744 5743 5743 5744 5743 5742 5740 5739 5738 5737 5736
5850 5842 5819 5821 5811 5807 5834 5855 5836 5831 5824 5830 5833 5800 5808 5824 5835 5833 5827 5822 5816 5807 5798 5788 5782 5777 5774 5771 5769 5767 5763 5760 5756 5752 5749 5745 5745 5745 5746 5745 5744 5745 5744 5743 5742 5740 5738 5737 5737
5849 5816 5812 5821 5811 5811 5839 5846 5848 5840 5827 5850 5837 5793 5763 5823 5835 5832 5822 5823 5812 5808 5797 5792 5784 5778 5774 5770 5769 5766 5763 5760 5757 5752 5749 5746 5746 5748 5747 5747 5746 5745 5746 5745 5744 5742 5738 5738 5737
5858 5795 5807 5821 5820 5823 5845 5832 5850 5854 5836 5848 5842 5822 5825 5835 5835 5824 5811 5811 5807 5803 5797 5795 5784 5780 5777 5772 5768 5765 5762 5760 5757 5754 5752 5751 5751 5753 5752 5751 5750 5748 5747 5747 5746 5743 5738 5738 5737
5838 5805 5822 5840 5841 5831 5840 5837 5836 5837 5830 5811 5819 5813 5806 5825 5830 5817 5810 5798 5796 5793 5794 5795 5790 5784 5779 5775 5770 5766 5763 5762 5760 5758 5755 5754 5757 5757 5756 5757 5755 5753 5749 5749 5748 5743 5740 5741 5743
5847 5824 5841 5841 5842 5844 5837 5841 5853 5833 5817 5828 5818 5815 5805 5816 5828 5819 5815 5809 5803 5802 5797 5798 5792 5787 5783 5776 5770 5768 5765 5765 5763 5760 5759 5758 5759 5758 5760 5759 5757 5753 5749 5748 5747 5744 5747 5748 5748
5834 5845 5847 5842 5846 5843 5836 5847 5842 5842 5838 5850 5835 5826 5818 5824 5826 5820 5810 5812 5807 5795 5801 5795 5791 5775 5779 5777 5774 5773 5769 5769 5766 5764 5762 5760 5761 5762 5760 5759 5758 5757 5751 5751 5750 5749 5752 5757 5757
5843 5844 5855 5852 5852 5849 5849 5838 5837 5840 5851 5854 5842 5834 5830 5828 5828 5832 5825 5814 5810 5799 5799 5793 5790 5787 5784 5777 5779 5777 5775 5772 5768 5765 5764 5761 5762 5765 5761 5758 5760 5756 5751 5755 5755 5757 5753 5759 5760
5851 5851 5855 5856 5851 5853 5835 5833 5835 5843 5855 5849 5845 5839 5838 5834 5830 5825 5828 5818 5813 5805 5799 5798 5792 5787 5786 5780 5777 5772 5770 5773 5768 5769 5768 5764 5765 5766 5763 5760 5764 5763 5759 5757 5762 5764 5761 5764 5766
5855 5840 5859 5852 5852 5846 5844 5803 5788 5841 5851 5843 5840 5838 5839 5836 5834 5829 5830 5820 5815 5806 5802 5796 5792 5788 5785 5781 5776 5770 5769 5773 5770 5771 5768 5767 5765 5764 5762 5761 5765 5770 5767 5766 5764 5762 5762 5766 5769
5843 5849 5833 5852 5853 5854 5846 5785 5816 5840 5847 5841 5841 5841 5837 5835 5834 5833 5830 5826 5818 5813 5805 5799 5798 5788 5783 5782 5776 5772 5771 5772 5773 5772 5770 5769 5766 5764 5763 5761 5766 5772 5769 5768 5754 5767 5760 5766 5768
5847 5830 5831 5841 5861 5851 5845 5827 5854 5865 5853 5843 5843 5843 5840 5836 5836 5835 5833 5828 5822 5816 5806 5797 5797 5787 5783 5780 5775 5775 5771 5771 5775 5777 5775 5771 5769 5765 5765 5763 5765 5772 5771 5768 5762 5764 5766 5771 5772
5827 5824 5842 5832 5851 5848 5835 5836 5854 5868 5858 5850 5850 5848 5842 5841 5840 5840 5835 5831 5822 5815 5811 5800 5797 5792 5788 5778 5775 5774 5771 5772 5776 5780 5773 5768 5765 5768 5769 5767 5764 5768 5770 5767 5765 5768 5777 5776 5776
5839 5829 5828 5843 5858 5840 5835 5839 5855 5868 5867 5858 5855 5852 5853 5847 5849 5849 5840 5833 5827 5814 5806 5803 5794 5786 5783 5777 5771 5771 5769 5770 5774 5771 5762 5762 5761 5763 5770 5770 5769 5768 5769 5771 5775 5781 5776 5768 5773
5832 5824 5824 5844 5859 5844 5838 5842 5864 5874 5870 5869 5863 5858 5859 5854 5849 5844 5838 5833 5824 5816 5811 5803 5797 5787 5783 5780 5778 5777 5775 5773 5773 5766 5760 5748 5758 5760 5770 5770 5770 5771 5770 5774 5776 5779 5772 5762 5773
5832 5825 5827 5828 5844 5847 5846 5841 5859 5878 5871 5872 5872 5875 5873 5866 5852 5845 5838 5834 5828 5816 5808 5803 5799 5792 5790 5787 5781 5778 5774 5770 5765 5765 5757 5757 5756 5767 5770 5770 5768 5770 5768 5767 5770 5776 5772 5761 5768
5815 5850 5846 5832 5823 5802 5845 5802 5850 5856 5860 5865 5872 5878 5878 5873 5868 5853 5845 5834 5827 5821 5815 5808 5801 5794 5789 5787 5774 5773 5770 5764 5764 5763 5762 5756 5759 5767 5770 5770 5769 5765 5768 5765 5768 5771 5775 5772 5761
5824 5848 5839 5832 5821 5820 5832 5829 5841 5861 5847 5855 5869 5870 5877 5881 5874 5858 5848 5842 5834 5826 5820 5812 5803 5797 5793 5787 5781 5774 5770 5768 5767 5762 5757 5755 5761 5771 5773 5773 5770 5764 5765 5764 5767 5769 5772 5775 5772
5846 5832 5833 5835 5824 5794 5835 5837 5848 5843 5852 5856 5869 5867 5872 5876 5875 5868 5858 5847 5836 5832 5823 5815 5804 5796 5792 5787 5783 5777 5770 5766 5763 5761 5757 5758 5765 5772 5775 5777 5772 5769 5768 5767 5765 5769 5776 5776 5776
5835 5819 5791 5798 5799 5793 5813 5830 5847 5866 5868 5866 5864 5869 5868 5873 5869 5864 5857 5844 5838 5830 5823 5816 5805 5795 5792 5787 5782 5781 5776 5768 5761 5758 5759 5760 5766 5776 5776 5779 5776 5773 5774 5774 5772 5775 5775 5776 5774
5832 5832 5807 5780 5795 5818 5844 5819 5844 5874 5876 5873 5874 5873 5869 5867 5867 5862 5859 5852 5842 5832 5826 5818 5807 5800 5795 5789 5784 5783 5777 5767 5755 5755 5759 5767 5775 5778 5778 5778 5778 5776 5776 5776 5777 5777 5779 5777 5774
5825 5818 5852 5825 5836 5821 5841 5845 5850 5849 5859 5861 5860 5862 5860 5864 5864 5860 5857 5853 5844 5836 5829 5821 5809 5803 5797 5791 5786 5781 5777 5767 5758 5757 5762 5772 5778 5778 5774 5774 5775 5778 5777 5777 5777 5777 5775 5779 5776
5829 5843 5809 5826 5787 5780 5818 5813 5790 5819 5833 5846 5839 5844 5851 5859 5862 5860 5856 5852 5848 5840 5830 5824 5813 5804 5798 5794 5788 5783 5778 5771 5766 5762 5763 5770 5773 5774 5774 5773 5775 5772 5778 5778 5777 5777 5778 5778 5779
5832 5817 5823 5826 5817 5792 5792 5805 5839 5827 5839 5839 5827 5831 5837 5844 5852 5857 5856 5853 5848 5842 5832 5823 5814 5805 5798 5796 5792 5786 5781 5776 5773 5773 5771 5771 5772 5772 5771 5769 5772 5775 5774 5775 5775 5777 5779 5781 5781
5837 5829 5830 5801 5792 5812 5800 5801 5841 5833 5822 5825 5816 5818 5825 5831 5840 5851 5856 5851 5845 5837 5830 5822 5815 5808 5801 5795 5791 5787 5784 5781 5777 5774 5772 5769 5774 5772 5765 5760 5766 5772 5775 5774 5775 5776 5781 5777 5779